GFSNGP_500_rhum_021.txt.gz
RH
24 23 22 21 20 20 19 19 19 19 19 18 18 19 20 24 27 29 34 42 51 60 68 74 79 76 72 59 49 44 39 33 30 30 40 55 55 51 27 19 14 9 12 19
20 20 20 20 20 20 20 21 21 20 19 20 20 22 25 25 28 30 37 42 45 54 76 88 84 76 63 56 50 41 37 35 38 43 58 62 56 35 21 16 10 14 27 39
16 17 17 17 19 20 21 22 22 20 19 21 23 34 38 31 30 34 39 42 48 65 79 82 78 71 67 58 47 43 42 45 47 54 61 61 42 22 15 10 13 28 45 55
17 18 16 19 20 21 21 22 22 21 20 21 34 42 39 34 32 36 40 49 59 71 78 80 76 73 62 55 54 50 51 51 56 63 64 48 26 17 11 12 21 48 54 65
24 21 20 19 21 22 22 22 23 23 22 21 34 42 39 34 34 37 47 53 52 68 83 80 75 66 64 60 56 58 60 63 67 67 53 38 22 12 12 15 36 55 58 78
32 29 22 20 22 24 24 21 24 24 22 22 28 44 40 35 37 42 53 51 57 79 83 77 71 67 66 67 64 66 68 71 66 57 49 26 14 12 14 22 50 58 57 74
30 27 20 25 25 26 23 24 24 24 22 21 44 52 41 39 42 49 52 54 74 78 77 74 74 82 74 70 70 72 76 68 58 46 28 16 13 12 17 31 57 62 68 76
27 26 20 27 26 25 24 25 25 24 22 37 55 48 44 45 44 48 50 72 76 81 84 88 89 74 75 71 74 80 70 58 44 28 19 13 14 12 24 46 73 76 72 70
35 32 30 28 25 24 25 26 25 23 30 54 54 48 47 42 39 49 76 86 90 92 93 89 78 80 76 78 85 74 56 42 31 20 14 16 14 19 34 60 93 97 88 82
34 35 33 29 28 27 27 24 24 29 46 51 48 46 40 41 52 82 78 81 85 90 86 86 88 84 83 88 74 54 40 31 21 16 17 19 17 33 40 49 65 94 97 92
29 36 33 31 33 30 24 24 32 43 47 46 46 45 44 61 91 87 88 87 89 91 95 96 89 89 87 69 48 39 33 23 18 18 22 22 28 43 50 50 71 96 99 96
28 32 26 24 25 28 34 38 41 46 49 53 56 60 77 98 100 96 93 92 96 100 100 95 91 86 63 47 39 33 23 20 19 22 25 26 38 44 49 68 95 100 100 99
27 28 30 36 46 49 49 49 50 62 67 74 78 73 94 99 92 97 99 100 100 100 97 92 81 60 46 37 30 22 20 21 23 30 31 34 41 51 88 98 94 99 99 97
52 55 57 59 51 49 51 66 77 75 78 80 87 94 90 97 100 100 100 100 100 100 95 73 56 42 32 24 18 18 20 24 32 38 39 41 44 65 93 100 98 96 98 93
63 60 55 44 40 64 84 80 77 77 75 82 88 98 100 100 100 100 100 100 100 90 66 49 34 27 19 14 16 19 25 32 42 44 46 51 52 57 83 94 100 100 100 95
32 34 47 56 56 73 87 92 94 82 84 91 99 100 100 100 100 100 100 100 81 56 40 29 21 13 14 18 18 25 31 42 52 53 56 58 63 68 69 98 100 98 98 98
66 79 80 79 87 96 94 95 100 100 100 100 100 100 100 100 100 100 99 68 47 33 24 18 13 19 23 21 21 31 42 53 61 60 66 64 71 70 95 99 79 81 96 100
88 82 79 82 93 99 100 100 100 100 100 100 100 100 100 100 100 87 53 39 29 22 17 15 21 26 28 24 30 46 56 62 68 69 78 78 76 90 100 98 92 87 93 99
87 86 87 90 100 100 100 100 100 100 100 100 100 100 100 98 74 53 38 27 22 17 15 24 26 30 30 29 44 56 65 72 80 73 81 83 89 92 99 100 96 97 97 100
75 76 81 91 100 100 100 100 100 100 100 100 100 100 88 72 52 36 25 21 18 14 22 28 32 36 32 39 58 67 74 86 90 74 75 82 85 87 88 92 99 100 99 99
76 82 97 100 100 100 100 100 100 100 100 100 93 81 64 42 31 25 22 18 17 24 27 27 38 42 39 53 72 81 94 94 93 93 94 86 79 81 83 91 100 100 100 100
96 100 100 100 100 100 100 100 100 100 96 87 68 45 34 30 27 24 22 18 20 28 29 30 47 48 53 63 81 97 99 100 97 91 89 93 97 99 100 99 100 100 100 100
95 94 97 100 100 100 100 100 93 81 60 42 33 30 28 28 26 23 20 23 27 29 28 29 54 54 62 78 82 97 100 100 98 95 93 87 85 95 100 100 100 100 100 100
100 100 100 100 100 97 86 58 40 30 25 26 30 33 33 31 27 28 24 27 29 28 24 28 60 58 60 78 91 94 93 93 90 88 88 87 89 92 98 96 96 100 100 100
99 91 77 55 38 23 18 18 20 26 30 33 34 36 35 32 28 27 32 31 29 25 20 28 63 64 62 72 88 95 98 99 99 96 93 93 95 92 86 76 81 100 100 100
25 20 16 16 15 17 21 26 27 29 31 31 30 31 33 32 30 33 32 29 27 21 19 25 53 63 64 68 91 98 99 99 94 89 85 82 84 88 81 60 64 91 100 100
14 15 16 22 32 33 34 35 36 34 34 33 29 30 31 35 39 36 33 30 25 20 22 28 42 60 65 71 98 100 100 100 99 90 80 76 62 62 78 76 65 71 92 100

GFSNGP_500_rhum_024.txt.gz
RH
30 27 28 27 26 23 21 20 20 19 19 19 19 18 19 22 31 41 41 36 32 33 36 39 43 42 43 61 79 84 81 72 66 61 60 51 45 52 58 60 50 36 22 12
28 26 23 21 20 20 20 20 20 19 20 21 21 20 19 21 34 40 42 37 34 34 37 42 48 46 60 85 92 85 77 71 67 67 48 48 51 59 64 54 38 23 13 11
22 22 19 17 18 18 18 19 19 20 21 21 22 22 21 21 27 37 44 40 35 36 41 50 55 60 80 91 90 84 76 76 61 54 56 60 64 67 54 37 23 13 12 16
23 21 16 14 15 17 19 23 22 22 22 21 21 22 22 22 22 41 49 43 38 40 46 60 63 72 87 89 88 87 82 66 62 62 65 70 70 52 34 24 14 14 14 33
29 24 18 20 21 20 22 26 25 23 23 22 22 23 24 22 28 50 54 48 44 46 55 65 69 89 92 92 92 78 71 66 68 64 69 68 50 33 23 15 14 13 22 50
22 21 15 18 24 27 26 18 27 25 24 24 23 23 25 24 44 60 61 51 51 51 58 66 84 85 86 88 84 82 75 75 72 71 66 50 33 22 16 15 16 16 34 66
29 24 17 21 23 27 26 27 24 27 26 24 25 26 26 29 56 61 56 54 49 48 59 86 88 93 95 94 87 81 79 75 73 66 49 30 21 16 16 19 16 26 38 68
28 28 24 34 34 34 32 30 28 28 26 27 28 28 27 37 58 58 52 47 45 62 98 100 100 100 100 90 90 84 82 76 62 44 27 19 16 16 19 22 24 39 43 49
18 20 27 31 34 35 34 31 29 30 32 32 34 32 37 52 54 50 49 56 70 100 100 100 100 98 94 97 88 88 79 57 38 24 16 14 16 19 24 26 36 47 48 53
18 32 34 33 28 30 30 32 34 35 34 30 34 48 53 49 53 64 80 94 100 100 100 100 100 100 98 92 93 78 51 35 22 12 13 15 20 24 30 34 42 47 51 77
16 28 27 31 34 36 33 32 31 30 38 52 54 50 53 64 73 82 99 100 100 100 100 100 100 100 98 93 81 51 33 19 12 14 17 18 23 35 38 40 44 63 85 89
21 27 23 26 30 34 34 38 45 54 56 52 47 64 83 78 80 90 100 100 100 99 100 100 100 100 94 89 51 32 17 12 16 19 18 22 30 43 47 45 54 75 86 89
27 30 32 38 42 47 53 61 62 54 48 53 88 93 90 96 92 92 96 94 100 100 100 100 100 99 93 53 33 17 12 15 18 21 23 31 43 50 53 54 50 62 80 86
52 50 53 62 58 59 54 46 42 47 54 68 96 98 100 100 100 100 100 100 100 100 100 100 97 89 61 37 19 12 17 18 22 24 32 45 54 57 56 64 61 58 75 86
60 55 45 40 39 37 45 73 86 84 89 89 96 100 98 95 100 100 100 100 100 100 100 95 87 67 40 20 12 16 21 23 25 30 48 53 57 63 62 66 68 71 91 76
36 57 75 78 71 69 88 93 91 91 98 100 99 97 100 100 100 100 100 100 100 99 86 84 76 48 21 14 15 23 24 29 28 43 55 58 62 67 69 70 74 95 90 83
84 86 89 86 91 100 100 94 89 90 100 100 96 100 100 100 100 100 100 100 96 88 89 81 55 22 15 14 22 21 27 32 34 52 59 66 65 70 79 85 89 93 92 91
91 90 86 89 92 90 87 87 90 96 100 100 100 100 100 100 100 100 99 99 98 92 73 45 23 18 15 22 25 24 36 35 47 56 64 75 68 70 84 88 91 94 99 100
76 81 86 89 88 82 78 86 100 100 100 100 100 100 100 100 99 98 99 100 90 73 42 23 19 18 19 28 27 30 44 42 57 68 76 84 87 85 82 86 92 94 97 99
62 59 61 67 72 88 98 100 100 100 100 100 100 100 100 100 100 100 93 81 48 30 23 20 19 19 23 31 28 40 51 52 64 79 87 88 87 89 93 99 100 100 99 99
82 86 82 92 100 100 100 100 100 100 100 100 100 100 100 99 90 75 47 27 28 25 24 22 23 24 31 32 28 47 56 64 69 86 93 94 94 93 89 85 85 95 100 100
78 82 91 94 93 94 95 100 100 100 100 100 95 81 60 36 27 27 27 27 26 28 27 28 27 34 33 33 26 51 60 68 83 87 93 93 90 86 84 86 91 95 98 100
94 98 100 100 100 100 100 100 93 78 53 29 20 20 22 24 24 27 26 28 28 29 30 28 34 35 32 30 25 53 62 64 79 92 94 96 96 97 95 96 99 100 100 100
100 100 100 99 88 66 52 33 20 16 15 16 19 28 33 32 28 35 34 32 28 28 31 36 36 34 31 24 24 49 65 66 72 90 93 95 96 94 89 86 84 91 99 91
86 67 42 25 20 20 19 16 12 12 17 24 33 39 41 40 36 34 35 29 36 45 44 39 37 35 28 25 26 43 66 67 69 89 100 99 98 94 93 86 80 72 69 88
34 27 19 16 12 12 13 14 16 19 22 27 33 37 38 42 42 37 33 39 44 43 42 39 39 38 32 28 30 42 63 70 73 94 99 100 100 100 96 87 78 77 69 68
24 18 16 14 15 17 20 24 29 33 37 37 34 33 30 32 38 38 40 44 43 41 41 41 41 41 38 32 34 44 64 78 85 96 100 100 100 100 99 90 81 75 65 64

GFSNGP_500_rhum_030.txt.gz
RH
25 25 29 29 23 22 23 26 25 25 22 21 20 19 19 19 20 21 21 22 22 23 24 25 26 27 27 37 59 62 57 54 56 53 76 95 97 89 82 82 79 64 51 52
23 27 28 27 23 20 23 26 24 22 20 20 18 17 16 17 18 23 26 25 25 25 26 27 29 32 33 42 59 60 57 56 54 92 98 100 96 92 88 85 91 67 52 46
22 25 25 21 23 24 24 25 23 20 21 18 18 18 21 23 25 27 28 29 30 30 30 29 34 38 40 49 60 58 60 73 97 96 100 99 92 97 95 98 74 53 50 16
20 24 23 22 23 24 23 24 26 26 28 27 25 23 23 25 28 31 33 35 34 34 34 37 42 41 51 60 61 71 89 94 100 99 100 98 100 100 99 96 61 52 28 13
20 22 19 22 22 25 25 26 27 24 24 22 24 26 31 33 38 40 40 39 38 40 42 42 43 56 62 68 80 84 90 100 100 100 98 100 100 100 96 66 55 41 14 14
18 19 19 21 22 22 20 18 18 21 22 25 29 31 39 40 41 42 42 44 46 44 39 48 64 66 70 80 91 100 100 100 99 96 100 100 100 79 65 56 53 16 14 15
13 12 8 11 10 9 10 12 9 10 12 16 22 26 34 38 41 44 46 42 40 47 63 65 58 62 90 98 100 100 100 100 100 100 100 100 93 62 60 58 23 12 14 17
8 8 9 9 7 7 7 6 8 11 13 15 18 26 34 39 37 35 40 50 61 66 58 56 54 97 100 100 100 100 100 100 100 100 100 100 96 64 62 38 12 13 16 23
9 10 10 8 6 6 7 9 12 14 18 22 28 30 32 34 41 53 63 65 59 45 54 76 82 90 97 100 100 100 100 100 100 100 100 98 86 61 38 13 12 16 20 29
7 9 8 8 8 9 13 16 20 24 29 32 34 39 48 57 60 57 46 36 61 90 90 92 100 100 100 100 100 100 100 100 100 99 98 90 61 43 16 11 16 19 28 35
8 10 11 16 17 20 25 27 31 34 40 47 53 56 53 48 46 42 47 71 81 88 94 98 99 98 100 100 100 100 100 100 100 98 91 66 55 24 10 16 19 25 34 40
12 18 20 26 30 36 39 41 46 47 47 50 45 43 65 72 72 73 77 86 98 98 98 100 100 100 100 100 100 100 100 100 99 88 71 57 29 11 15 21 22 34 40 48
24 32 40 43 42 40 43 47 43 40 44 51 74 78 76 78 86 96 95 86 94 100 100 100 100 98 100 100 100 100 100 98 87 73 47 22 12 15 23 23 30 38 46 55
47 47 43 40 34 33 34 41 73 83 80 77 78 81 84 85 90 98 98 100 100 100 100 100 100 100 100 100 100 100 96 88 58 31 16 14 18 24 27 29 39 46 56 61
38 31 31 40 58 65 68 87 88 86 84 85 85 82 80 83 91 99 100 100 100 100 100 100 100 100 100 100 99 90 64 31 19 14 18 22 24 31 31 37 49 59 63 61
31 40 64 80 82 84 86 85 84 84 84 87 90 91 95 100 100 100 100 100 100 100 100 100 100 100 100 94 76 35 20 15 17 19 22 25 30 34 38 47 64 73 77 80
49 67 82 92 95 96 95 93 92 90 90 89 90 94 86 78 79 94 100 100 100 100 100 100 98 91 51 26 18 14 17 22 24 25 26 30 36 37 46 57 75 83 82 82
78 91 95 95 95 93 90 90 91 88 81 73 69 70 80 98 100 100 100 100 100 97 86 68 40 28 15 14 17 23 27 26 29 28 32 41 42 39 49 64 74 88 92 90
94 94 95 98 99 96 88 79 74 67 69 89 100 100 100 100 100 97 89 71 43 30 16 11 12 14 18 21 29 31 32 34 33 32 39 41 41 39 48 75 78 84 88 88
99 100 93 85 81 69 45 25 20 30 47 69 93 100 92 58 34 24 20 17 13 12 11 13 16 21 28 33 36 33 35 39 37 38 42 41 40 35 42 76 88 95 96 94
80 76 70 39 14 6 9 37 82 100 95 73 46 27 24 23 24 22 19 16 13 13 15 19 23 26 28 35 38 36 29 33 39 42 41 41 40 32 41 72 90 96 97 99
30 8 6 7 8 11 54 80 69 54 50 40 30 28 27 28 24 18 16 15 14 16 21 25 29 32 34 35 37 38 39 38 42 42 41 43 41 34 44 73 89 94 94 100
7 7 8 9 10 11 23 40 55 55 47 39 31 27 26 28 25 19 17 17 18 24 28 31 35 38 38 37 40 42 41 42 44 41 39 43 45 42 50 76 94 97 99 100
8 8 9 11 20 43 58 58 54 54 50 44 37 30 34 32 24 22 18 19 26 28 26 25 25 26 26 26 26 26 27 29 31 32 32 37 47 52 62 84 100 100 100 100
9 11 14 28 59 67 59 46 52 58 54 44 38 38 38 31 25 19 19 26 25 24 26 27 26 25 26 26 26 27 28 28 28 28 28 32 45 59 76 100 100 100 100 100
12 18 52 79 68 50 46 56 69 69 58 47 42 43 37 31 22 20 23 22 26 31 29 23 22 23 23 23 23 24 24 24 25 27 28 31 44 70 98 100 100 100 100 100
39 66 89 96 90 88 85 79 67 58 53 49 46 41 33 20 19 18 21 28 25 18 17 19 20 20 20 20 21 22 23 25 26 30 35 36 45 76 100 100 100 100 100 100

GFSNGP_500_rhum_033.txt.gz
RH
11 15 20 22 26 29 20 20 19 24 28 28 26 22 20 18 17 16 16 20 26 30 31 32 32 31 32 32 34 38 42 43 48 61 65 73 93 94 87 94 97 88 98 97
14 17 24 26 27 29 24 24 26 28 27 28 22 21 18 19 21 25 26 28 30 33 33 32 34 37 35 36 41 45 44 52 66 74 87 91 83 82 100 95 89 94 100 97
17 21 24 24 28 31 31 31 31 27 28 27 20 20 24 26 26 26 27 28 32 36 42 43 42 40 41 46 46 47 60 67 74 92 92 90 100 100 100 100 100 100 100 90
21 25 23 22 27 30 28 29 30 25 25 26 22 26 22 23 22 26 32 38 45 50 50 47 48 51 47 46 55 64 69 73 97 96 100 100 100 100 100 100 100 100 91 78
23 24 23 24 21 26 27 30 21 20 21 22 20 20 25 17 26 31 34 43 48 49 52 52 46 43 54 67 63 60 57 89 97 97 100 100 100 100 100 100 100 96 81 58
24 21 17 16 19 18 19 22 11 15 14 14 14 13 22 17 20 26 35 39 43 41 39 39 51 65 67 57 58 75 80 89 100 100 100 100 100 100 100 100 98 91 66 36
20 14 9 7 6 6 7 6 7 8 7 8 10 10 16 17 17 24 29 32 38 46 59 65 64 51 53 85 88 95 85 100 100 100 100 100 100 100 100 98 91 70 40 28
8 8 8 8 7 7 7 7 7 7 8 9 12 14 16 21 25 27 32 40 51 51 49 44 47 77 99 99 100 100 100 100 100 100 100 100 100 100 100 92 92 71 28 12
11 11 9 8 7 6 6 6 8 8 12 15 20 24 27 32 40 49 48 39 43 59 61 65 80 97 100 100 100 100 100 100 100 100 100 100 100 100 98 90 45 19 13 11
12 10 9 8 7 5 6 8 12 17 23 29 35 40 45 46 45 40 35 64 76 72 74 75 80 94 96 100 100 100 100 100 100 100 100 100 100 96 88 46 19 15 12 17
10 9 8 8 5 10 14 17 24 33 39 41 42 41 36 37 49 63 74 73 73 76 79 88 99 90 89 100 100 100 100 100 100 100 100 100 98 82 33 14 13 14 19 24
9 8 10 11 10 18 25 37 43 42 35 30 31 34 61 77 74 74 77 79 80 84 90 95 95 100 100 100 100 100 100 100 100 100 100 90 53 23 16 16 18 21 27 29
11 12 13 22 31 41 45 43 30 26 35 56 62 73 81 81 80 81 84 88 93 95 93 97 100 100 100 100 100 100 100 100 100 96 69 28 17 15 14 19 21 26 32 36
21 32 33 50 43 40 30 27 33 56 68 76 81 87 87 88 91 96 95 92 91 94 100 100 100 100 100 100 100 100 100 92 50 16 13 15 15 20 23 25 24 32 35 46
45 47 42 36 33 30 26 29 44 65 84 88 88 92 96 96 92 87 83 80 86 99 100 100 100 100 100 100 98 79 40 17 11 13 13 17 24 26 29 29 33 39 41 52
39 38 35 30 27 29 41 60 82 89 90 92 92 90 89 82 70 64 74 79 80 84 94 99 100 95 76 40 22 16 11 10 11 15 23 29 32 32 31 33 41 43 45 66
34 31 32 45 67 86 95 95 96 98 95 92 89 73 44 18 10 15 48 90 100 99 88 68 41 25 21 17 13 11 12 17 21 24 31 32 29 33 36 39 44 44 47 70
61 74 83 91 95 96 96 97 97 95 81 50 23 9 6 8 18 38 56 52 38 26 24 25 24 22 18 15 14 14 18 24 27 29 34 39 35 31 40 42 43 44 46 72
84 95 99 97 98 100 100 91 66 32 12 5 6 7 10 16 24 32 34 30 27 27 27 28 27 21 17 14 18 24 29 34 38 38 40 42 43 40 44 44 44 44 42 74
100 100 100 100 96 89 52 20 7 6 6 8 8 9 21 45 48 44 41 37 31 29 31 32 28 22 16 19 26 28 30 34 38 39 42 46 47 47 49 45 44 43 41 75
100 100 95 86 51 15 7 6 7 8 9 10 17 39 52 54 57 57 49 37 36 37 38 36 28 21 16 22 24 25 25 26 27 27 27 30 36 44 46 43 45 45 46 79
94 81 46 14 7 7 7 8 9 10 12 25 39 49 49 49 63 68 62 48 42 40 38 30 23 16 19 21 24 29 28 26 26 27 28 28 29 31 36 37 42 50 58 89
45 16 7 7 7 8 9 9 10 14 28 41 53 49 46 68 78 61 42 40 37 34 29 18 14 16 20 28 29 28 25 24 25 27 29 30 30 30 30 32 42 61 76 99
8 7 8 8 9 9 10 11 14 24 48 64 63 78 85 70 48 38 35 35 36 24 14 14 20 25 22 17 16 18 21 22 23 25 26 27 28 29 30 32 44 70 100 100
8 8 9 9 10 11 12 20 32 50 74 86 89 84 58 42 42 39 35 30 17 14 16 23 17 14 15 17 18 18 18 19 21 23 25 26 28 31 34 34 42 72 100 100
9 10 10 11 12 15 25 40 60 78 93 94 77 52 48 50 50 42 19 17 14 17 23 16 14 14 14 15 16 16 17 18 18 19 20 23 25 32 40 44 48 68 100 100
11 12 13 14 24 37 55 75 95 100 94 70 61 62 60 50 33 18 16 13 21 24 17 14 13 14 14 16 18 20 21 21 21 23 25 28 32 35 43 53 62 75 95 100